Location: Kumla
(59.1265°N, 15.1401°E)
Time: 15:23:44
(UTC+01:00)

A-11 Canister half - Pass Details

Date: 03 December 2023
Orbit: 1512 x 1687 km, 47.2° (Epoch: 25 February)

Event Time Altitude Azimuth Distance (km) Brightness Sun altitude
Rises 05:46:28 0° 272° (W) 4,855 - -19.1°
Reaches altitude 10° 05:49:57 10° 264° (W) 3,890 - -18.7°
Exits shadow 05:52:37 19° 253° (WSW) 3,252 10.2 -18.4°
Maximum altitude 05:58:22 33° 206° (SSW) 2,564 10.0 -17.6°
Drops below altitude 10° 06:06:56 10° 148° (SSE) 3,948 11.8 -16.6°
Sets 06:10:31 0° 139° (SE) 4,936 12.6 -16.1°
